PBO Station Position Time Series. Reference Frame : NAM14
Format Version,1.1.0
4-character ID,AC53
Station name,Willow_CrkAK2006
Begin Date, 2006-09-13
End Date, 2019-10-07
Release Date, 2019-10-08
Reference position, 61.7689724518 North Latitude, -150.0689529778 East Longitude, 57.48733 meters elevation,
Date, North (mm), East (mm), Vertical (mm), North Std. Deviation (mm), East Std. Deviation (mm),              Vertical Std. Deviation (mm), Quality,
2006-09-13,0.00, 0.00, 0.00, 2.45, 1.71, 8.23, repro,
2006-09-14,-1.47, -0.54, 6.90, 2.51, 1.77, 8.37, repro,
2006-09-15,-1.02, -0.18, 11.00, 2.48, 1.75, 8.35, repro,
2006-09-16,1.00, 0.42, 9.46, 2.48, 1.74, 8.27, repro,
2006-09-17,0.01, -1.54, 5.79, 2.43, 1.69, 8.19, repro,
2006-09-18,0.53, 1.52, 10.37, 2.45, 1.70, 8.27, repro,
2006-09-19,0.02, -1.21, 11.51, 2.38, 1.68, 8.08, repro,
2006-09-20,-0.52, -0.92, 11.44, 2.38, 1.66, 7.98, repro,
2006-09-21,-1.68, 0.09, 7.34, 2.46, 1.71, 8.21, repro,
2006-09-22,-0.08, -1.23, 11.11, 2.51, 1.73, 8.29, repro,
2006-09-23,-0.65, 0.99, 1.33, 2.48, 1.70, 8.21, repro,
2006-09-24,1.22, -1.71, -0.93, 2.48, 1.73, 8.23, repro,
2006-09-25,0.68, -0.58, 3.17, 2.39, 1.69, 8.10, repro,
2006-09-26,-0.25, -0.67, 0.23, 2.40, 1.69, 8.39, repro,
2006-09-27,1.78, -1.49, 7.12, 2.42, 1.68, 8.13, repro,
2006-09-28,-1.42, 0.77, 9.97, 2.47, 1.72, 8.30, repro,
2006-09-29,-0.03, -0.93, 6.51, 2.48, 1.70, 8.19, repro,
2006-09-30,0.45, -0.55, 6.63, 3.27, 2.39, 11.49, repro,
2006-10-18,4.71, -1.42, 2.77, 6.07, 4.16, 23.81, repro,
2006-10-19,1.94, -1.84, 6.74, 2.48, 1.71, 8.26, repro,
2006-10-20,0.97, -1.27, 2.72, 2.60, 1.76, 8.56, repro,
2006-10-21,2.38, -1.41, 0.27, 2.50, 1.69, 8.22, repro,
2006-10-22,1.20, -1.77, 9.14, 2.45, 1.67, 8.23, repro,
2006-10-23,0.45, -2.75, 14.28, 2.37, 1.62, 7.94, repro,
2006-10-24,-0.31, -1.09, 11.25, 2.57, 1.76, 8.48, repro,
2006-10-25,-0.38, -1.37, 12.30, 2.60, 1.78, 8.54, repro,
2006-10-26,-0.85, -1.61, 11.92, 2.46, 1.68, 8.18, repro,
2006-10-27,0.06, -2.29, 0.64, 2.39, 1.62, 8.00, repro,
2006-10-28,1.98, -2.44, 0.07, 2.53, 1.73, 8.35, repro,
2006-10-29,2.21, -1.19, 1.96, 2.38, 1.62, 7.86, repro,
2006-10-30,-0.60, 0.22, 3.76, 2.39, 1.63, 8.03, repro,
2006-10-31,1.72, -1.07, -3.34, 2.42, 1.62, 8.04, repro,
2006-11-01,1.59, -3.11, -4.30, 2.41, 1.62, 8.06, repro,
2006-11-02,1.86, -3.45, -2.12, 2.42, 1.61, 8.04, repro,
2006-11-03,1.71, -2.70, 2.30, 2.38, 1.61, 7.93, repro,
2006-11-04,0.72, -2.49, 5.19, 2.43, 1.65, 8.21, repro,
2006-11-05,0.93, -3.25, 5.81, 2.39, 1.59, 7.90, repro,
2006-11-06,-0.00, -2.03, -1.13, 2.35, 1.57, 7.74, repro,
2006-11-07,0.41, -3.02, 3.51, 2.41, 1.62, 8.27, repro,
2006-11-08,1.02, -3.58, 6.24, 2.45, 1.62, 8.20, repro,
2006-11-09,-0.75, -2.76, 6.26, 2.48, 1.64, 8.31, repro,
2006-11-10,1.08, -2.86, 7.50, 2.43, 1.64, 8.32, repro,
2006-11-11,1.18, -3.87, 7.48, 2.46, 1.62, 8.22, repro,
2006-11-12,-0.64, -2.98, -0.58, 2.45, 1.63, 8.21, repro,
2006-11-13,1.75, -4.70, 9.67, 2.46, 1.65, 8.29, repro,
2006-11-14,0.99, -2.82, 9.46, 2.36, 1.56, 7.78, repro,
2006-11-15,1.82, -3.32, 12.09, 2.36, 1.57, 7.84, repro,
2006-11-16,2.51, -2.58, 6.01, 2.37, 1.57, 7.89, repro,
2006-11-17,-0.50, -2.34, 7.37, 2.33, 1.55, 7.73, repro,
2006-11-18,0.44, -3.04, 2.74, 2.34, 1.56, 7.81, repro,
2006-11-19,-0.37, -3.06, 3.82, 2.36, 1.57, 7.80, repro,
2006-11-20,1.94, -4.15, 9.36, 2.37, 1.57, 7.88, repro,
2006-11-21,0.27, -4.11, 2.68, 2.35, 1.56, 7.81, repro,
2006-11-22,0.90, -2.92, -3.72, 2.35, 1.57, 7.78, repro,
2006-11-23,0.04, -2.91, -4.24, 2.42, 1.61, 8.02, repro,
2006-11-24,-0.49, -3.17, -4.03, 2.46, 1.65, 8.08, repro,
2006-11-25,-0.19, -2.90, -4.32, 2.37, 1.57, 7.86, repro,
2006-11-26,-0.44, -2.19, -6.93, 2.41, 1.61, 7.99, repro,
2006-11-27,0.32, -2.44, -4.57, 2.40, 1.61, 7.93, repro,
2006-11-28,-1.28, -2.01, -3.89, 2.35, 1.58, 7.85, repro,
2006-11-29,0.17, -2.89, 3.75, 2.34, 1.56, 7.74, repro,
2006-11-30,-0.79, -3.62, 3.45, 2.48, 1.69, 8.29, repro,
2006-12-01,-1.49, -2.47, -7.45, 2.35, 1.56, 7.81, repro,
2006-12-02,-2.82, -2.03, -18.36, 2.42, 1.58, 7.90, repro,
2006-12-03,-4.35, -1.31, -6.87, 2.36, 1.57, 7.85, repro,
2006-12-04,0.73, -2.14, -1.86, 2.44, 1.63, 8.11, repro,
2006-12-05,0.67, -3.00, -1.33, 2.39, 1.59, 7.96, repro,
2006-12-06,1.53, -1.36, 16.63, 2.41, 1.62, 8.02, repro,
2006-12-07,-2.08, -1.12, 15.85, 2.42, 1.61, 8.07, repro,
2006-12-08,-0.13, -1.58, 16.67, 2.43, 1.63, 8.17, repro,
2006-12-09,-1.68, -3.33, 14.96, 2.69, 1.79, 8.61, repro,
2006-12-10,0.44, -1.42, 15.02, 2.45, 1.67, 8.20, repro,
2006-12-11,-1.01, -1.59, 13.77, 2.37, 1.59, 7.89, repro,
2006-12-12,0.71, -3.10, 10.21, 2.47, 1.66, 8.21, repro,
2006-12-13,-0.48, -2.95, 5.09, 2.39, 1.59, 7.72, repro,
2006-12-14,-0.58, -2.22, 5.61, 2.42, 1.61, 7.96, repro,
2006-12-15,2.27, -2.28, -5.29, 2.76, 1.86, 9.11, repro,
2006-12-16,0.26, -1.70, 0.06, 2.44, 1.63, 8.05, repro,
2006-12-17,0.11, -2.31, 0.25, 2.42, 1.63, 8.08, repro,
2006-12-18,-0.97, -2.28, 10.95, 2.48, 1.72, 8.41, repro,
2006-12-19,-0.68, -2.25, 13.01, 2.46, 1.68, 8.47, repro,
2006-12-20,-0.61, -1.98, 21.39, 2.47, 1.68, 7.93, repro,
2006-12-21,2.00, -1.73, 11.74, 2.42, 1.64, 8.11, repro,
2006-12-22,0.35, -0.77, 12.25, 2.58, 1.73, 8.83, repro,
2006-12-23,1.19, -0.92, 2.40, 2.45, 1.70, 8.24, repro,
2006-12-24,2.46, -3.57, -1.18, 2.38, 1.58, 7.67, repro,
2006-12-25,2.32, -3.02, 1.66, 2.43, 1.63, 7.98, repro,
2006-12-26,2.05, -2.17, 0.44, 2.44, 1.66, 8.12, repro,
2006-12-27,1.11, -3.65, -9.46, 2.50, 1.66, 8.07, repro,
2006-12-28,1.60, -2.74, -1.65, 2.64, 1.80, 9.00, repro,
2006-12-29,-3.34, -0.27, -10.34, 2.43, 1.63, 7.82, repro,
2006-12-30,-1.77, 0.79, 0.28, 2.51, 1.67, 8.07, repro,
2006-12-31,-1.98, 1.34, -1.71, 2.57, 1.72, 8.44, repro,
2007-01-01,-1.68, 0.47, -0.17, 2.62, 1.74, 8.62, repro,
2007-01-02,-1.83, 0.03, 7.36, 2.57, 1.74, 8.73, repro,
2007-01-03,-1.33, -0.58, -20.06, 2.41, 1.61, 7.75, repro,
2007-01-04,-4.08, 1.17, -35.43, 2.48, 1.68, 7.96, repro,
2007-01-05,-5.85, 0.45, -43.47, 2.44, 1.61, 7.80, repro,
2007-01-06,-1.07, -0.19, -45.68, 2.38, 1.59, 7.68, repro,
2007-01-07,-1.55, -0.26, -54.10, 2.43, 1.61, 7.95, repro,
2007-01-08,-4.72, 1.94, -78.40, 3.35, 2.21, 10.20, repro,
2007-01-09,-1.28, 0.55, -65.95, 2.39, 1.61, 7.88, repro,
2007-01-10,0.02, -0.10, -64.42, 2.43, 1.61, 7.98, repro,
2007-01-11,0.09, -0.04, -82.59, 2.44, 1.64, 8.14, repro,
2007-01-12,-1.56, -1.25, -59.69, 2.44, 1.67, 8.37, repro,
2007-01-13,-0.17, 0.64, -56.78, 2.37, 1.62, 7.88, repro,
2007-01-14,-1.54, -1.43, -60.16, 2.42, 1.64, 7.88, repro,
2007-01-15,-1.44, -2.06, -55.12, 2.42, 1.67, 7.95, repro,
2007-01-16,-0.78, -0.36, -57.50, 2.45, 1.65, 7.95, repro,
2007-01-17,-4.49, -1.07, -59.93, 2.42, 1.63, 7.94, repro,
2007-01-18,-1.68, -0.28, -63.01, 2.41, 1.63, 7.85, repro,
2007-01-19,-2.59, -1.12, -55.56, 2.40, 1.67, 7.89, repro,
2007-01-20,-1.36, -1.54, -63.55, 2.40, 1.70, 8.08, repro,
2007-01-21,0.64, -0.54, -62.30, 2.35, 1.61, 7.73, repro,
2007-01-22,3.43, 0.24, -78.17, 3.34, 2.15, 10.12, repro,
2007-01-23,-1.40, -0.55, -81.77, 2.44, 1.65, 7.85, repro,
2007-01-24,-3.13, -1.54, -71.79, 2.41, 1.68, 7.94, repro,
2007-01-25,-2.93, -1.54, -80.59, 2.42, 1.68, 8.01, repro,
2007-01-26,-3.54, -0.74, -87.59, 2.37, 1.61, 7.76, repro,
2007-01-27,-2.32, -0.23, -81.10, 2.39, 1.64, 7.87, repro,
2007-01-28,-1.67, -0.84, -80.95, 2.38, 1.66, 7.96, repro,
2007-01-29,-1.98, -2.56, -84.61, 2.42, 1.68, 8.04, repro,
2007-01-30,-3.72, -1.43, -77.62, 2.39, 1.66, 7.98, repro,
2007-01-31,-1.91, 0.14, -85.84, 2.37, 1.64, 7.92, repro,
2007-02-01,4.05, -2.19, -14.63, 2.40, 1.64, 7.77, repro,
2007-02-02,2.14, -1.39, -4.77, 2.38, 1.64, 7.98, repro,
2007-02-03,2.88, -1.53, -4.98, 2.37, 1.62, 7.89, repro,
2007-02-04,0.62, -1.63, -4.92, 2.48, 1.66, 7.80, repro,
2007-02-05,1.52, -2.55, -6.69, 2.35, 1.61, 7.77, repro,
2007-02-06,1.20, -3.93, -15.42, 2.37, 1.61, 7.81, repro,
2007-02-07,1.13, -4.28, -11.47, 2.34, 1.60, 7.71, repro,
2007-02-08,2.23, -2.28, -9.93, 2.40, 1.64, 7.88, repro,
2007-02-09,1.24, -3.43, -10.17, 2.44, 1.70, 7.97, repro,
2007-02-10,1.19, -3.11, -1.81, 2.35, 1.61, 7.74, repro,
2007-02-11,0.67, -3.27, -1.54, 2.36, 1.64, 8.10, repro,
2007-02-12,0.26, -4.13, -5.13, 2.58, 1.80, 8.52, repro,
2007-02-13,1.73, -3.60, -3.93, 2.38, 1.64, 8.18, repro,
2007-02-14,1.69, -4.20, -2.40, 2.45, 1.64, 7.96, repro,
2007-02-15,1.95, -3.06, 8.22, 2.34, 1.63, 7.76, repro,
2007-02-16,2.51, -2.56, 1.41, 2.35, 1.61, 7.75, repro,
2007-02-17,3.11, -2.76, -8.31, 2.43, 1.65, 7.81, repro,
2007-02-18,2.66, -2.88, 4.08, 2.40, 1.67, 7.82, repro,
2007-02-19,3.43, -2.76, 7.95, 2.35, 1.60, 7.67, repro,
2007-02-20,2.74, -3.04, 6.85, 2.33, 1.61, 7.67, repro,
2007-02-21,2.69, -3.00, 1.44, 2.34, 1.58, 7.59, repro,
2007-02-22,2.28, -3.15, -0.51, 2.32, 1.58, 7.56, repro,
2007-02-23,3.27, -2.96, -0.89, 2.40, 1.67, 7.76, repro,
2007-02-24,3.30, -2.04, 2.70, 2.32, 1.57, 7.56, repro,
2007-02-25,1.92, -1.31, -3.36, 2.33, 1.59, 7.63, repro,
2007-02-26,2.55, -2.66, -13.06, 2.34, 1.59, 7.61, repro,
2007-02-27,4.67, -3.14, -6.44, 2.34, 1.58, 7.60, repro,
2007-02-28,3.17, -3.41, -8.40, 2.34, 1.59, 7.62, repro,
2007-03-01,4.39, -2.95, -5.77, 2.44, 1.64, 7.83, repro,
2007-03-02,2.79, -2.67, -8.09, 2.46, 1.66, 7.85, repro,
2007-03-03,4.17, -3.40, -9.86, 2.40, 1.62, 7.75, repro,
2007-03-04,3.37, -2.87, -7.11, 2.40, 1.61, 7.71, repro,
2007-03-05,3.40, -4.07, -6.15, 2.44, 1.64, 7.78, repro,
2007-03-06,3.42, -3.74, -1.03, 2.38, 1.61, 7.62, repro,
2007-03-07,3.12, -2.48, 8.33, 2.39, 1.61, 7.66, repro,
2007-03-08,2.59, -2.31, 3.98, 2.39, 1.61, 7.66, repro,
2007-03-09,1.47, -2.77, 4.67, 2.38, 1.60, 7.66, repro,
2007-03-10,4.35, -3.27, 1.32, 2.46, 1.65, 7.85, repro,
2007-03-11,3.89, -3.69, -2.58, 2.39, 1.61, 7.69, repro,
2007-03-12,3.20, -3.58, -4.22, 2.43, 1.66, 7.75, repro,
2007-03-13,5.64, -2.10, -4.32, 2.39, 1.64, 7.72, repro,
2007-03-14,5.02, -3.67, -10.08, 2.41, 1.62, 7.71, repro,
2007-03-15,2.93, -4.00, -18.24, 2.43, 1.61, 7.90, repro,
2007-03-16,2.70, -3.35, -7.74, 2.36, 1.60, 7.65, repro,
2007-03-17,3.01, -2.71, 1.28, 2.35, 1.59, 7.71, repro,
2007-03-18,4.88, -3.00, -8.70, 2.35, 1.60, 7.66, repro,
2007-03-19,2.39, -3.40, -3.73, 2.34, 1.60, 7.71, repro,
2007-03-20,3.92, -3.23, 2.47, 2.43, 1.64, 7.88, repro,
2007-03-21,2.22, -1.55, 3.49, 2.47, 1.72, 8.13, repro,
2007-03-22,1.89, -1.09, 0.23, 2.37, 1.65, 7.77, repro,
2007-03-23,0.59, -2.21, 12.38, 2.33, 1.59, 7.62, repro,
2007-03-24,4.46, -3.11, 8.43, 2.45, 1.69, 8.08, repro,
2007-03-25,2.88, -1.26, 6.54, 2.38, 1.64, 7.85, repro,
2007-03-26,3.14, -2.26, -5.57, 2.34, 1.59, 7.73, repro,
2007-03-27,3.03, -1.49, -6.30, 2.35, 1.61, 7.91, repro,
2007-03-28,2.68, -0.64, -10.57, 2.36, 1.61, 7.93, repro,
2007-03-29,2.17, -1.43, -11.72, 2.38, 1.67, 7.76, repro,
2007-03-30,2.07, -1.02, -16.47, 2.31, 1.59, 7.61, repro,
2007-03-31,4.56, -1.36, -17.49, 2.34, 1.60, 7.74, repro,
2007-04-01,2.67, -2.25, -20.30, 2.44, 1.68, 8.02, repro,
2007-04-02,1.50, -0.24, -17.28, 2.33, 1.60, 7.66, repro,
2007-04-03,1.99, -2.71, -17.30, 2.33, 1.60, 7.71, repro,
2007-04-04,1.00, -1.77, -18.40, 2.33, 1.61, 7.70, repro,
2007-04-05,2.36, -0.39, -9.17, 2.34, 1.62, 7.90, repro,
2007-04-06,2.24, -1.19, -1.94, 2.35, 1.62, 7.86, repro,
2007-04-07,1.63, -2.86, -0.11, 3.18, 1.96, 9.08, repro,
2007-04-08,1.36, -0.56, 1.79, 2.33, 1.60, 7.69, repro,
2007-04-09,0.67, -2.18, 1.88, 2.32, 1.62, 7.66, repro,
2007-04-10,0.55, -1.63, 7.09, 2.38, 1.64, 7.74, repro,
2007-04-11,1.91, -1.40, -2.36, 2.33, 1.61, 7.70, repro,
2007-04-12,0.47, -2.49, -4.39, 2.35, 1.62, 7.72, repro,
2007-04-13,1.62, -2.31, -1.75, 2.35, 1.60, 7.71, repro,
2007-04-14,1.26, -2.27, 3.06, 2.35, 1.62, 7.70, repro,
2007-04-15,1.17, -1.46, -1.21, 2.33, 1.60, 7.63, repro,
2007-04-16,2.48, -2.64, -4.41, 2.32, 1.60, 7.64, repro,
2007-04-17,1.30, -1.36, -9.62, 2.35, 1.61, 7.71, repro,
2007-04-18,1.80, -2.29, -9.40, 2.35, 1.60, 7.69, repro,
2007-04-19,2.67, -2.14, -4.21, 2.34, 1.61, 7.69, repro,
2007-04-20,1.66, -2.26, -6.26, 2.34, 1.60, 7.68, repro,
2007-04-21,1.69, -2.15, -5.95, 2.33, 1.60, 7.63, repro,
2007-04-22,0.36, -1.46, -7.09, 2.35, 1.61, 7.69, repro,
2007-04-23,1.21, -1.23, -2.71, 2.39, 1.61, 7.74, repro,
2007-04-24,1.17, -1.38, -0.82, 2.39, 1.63, 7.78, repro,
2007-04-25,2.35, -1.98, 9.69, 2.41, 1.66, 7.93, repro,
2007-04-26,1.30, -0.93, 4.17, 2.35, 1.61, 7.69, repro,
2007-04-27,0.06, -1.29, -1.51, 2.34, 1.62, 7.72, repro,
2007-04-28,1.92, -1.80, -2.11, 2.39, 1.65, 7.83, repro,
2007-04-29,1.39, -1.41, -4.54, 2.34, 1.62, 7.67, repro,
2007-04-30,2.73, -2.40, 1.08, 2.34, 1.60, 7.63, repro,
2007-05-01,2.65, -1.45, -3.69, 2.34, 1.63, 7.74, repro,
2007-05-02,3.80, -2.01, -16.59, 2.97, 1.90, 8.61, repro,
2007-05-03,3.01, -2.73, -6.30, 2.39, 1.63, 7.70, repro,
2007-05-04,2.53, -1.85, -11.85, 2.33, 1.59, 7.60, repro,
2007-05-05,0.73, -1.58, -5.69, 2.34, 1.61, 7.67, repro,
2007-05-06,2.36, -2.47, -2.00, 2.32, 1.60, 7.58, repro,
2007-05-07,2.10, -2.08, 4.15, 2.37, 1.63, 7.78, repro,
2007-05-08,3.49, -3.11, -5.24, 2.32, 1.61, 7.61, repro,
2007-05-09,1.89, -1.82, -10.23, 2.33, 1.59, 7.57, repro,
2007-05-10,0.97, -2.14, -5.26, 2.42, 1.69, 8.21, repro,
2007-05-11,2.17, -1.78, -7.25, 2.50, 1.75, 8.34, repro,
2007-05-12,3.09, -1.83, -3.63, 2.45, 1.68, 7.83, repro,
2007-05-13,1.43, -1.55, -6.42, 2.33, 1.61, 7.62, repro,
2007-05-14,3.92, -2.02, -12.12, 2.38, 1.63, 7.73, repro,
2007-05-15,2.30, -0.53, -9.81, 2.79, 1.77, 8.30, repro,
2007-05-16,3.31, -1.88, -5.06, 2.35, 1.59, 7.62, repro,
2007-05-17,2.74, -1.22, -5.34, 2.37, 1.64, 7.78, repro,
2007-05-18,3.70, -2.15, -18.01, 2.92, 2.00, 9.71, repro,
2007-05-19,3.05, -1.59, -6.19, 2.39, 1.65, 7.85, repro,
2007-05-20,2.24, -2.05, -6.35, 2.36, 1.62, 7.72, repro,
2007-05-21,1.56, -1.33, -10.66, 2.34, 1.60, 7.64, repro,
2007-05-22,1.48, -0.02, -7.41, 2.34, 1.60, 7.67, repro,
2007-05-23,2.91, -0.95, 3.87, 2.98, 2.15, 9.79, repro,
2007-05-24,2.56, -1.57, 0.22, 2.42, 1.67, 7.98, repro,
2007-05-25,2.19, -0.84, -3.19, 2.35, 1.62, 7.73, repro,
2007-05-26,1.36, -1.04, 3.29, 2.34, 1.62, 7.71, repro,
2007-05-27,2.50, -1.07, -4.19, 2.35, 1.61, 7.73, repro,
2007-05-28,2.22, -1.63, -9.16, 2.32, 1.60, 7.58, repro,
2007-05-29,2.43, -1.73, -2.61, 2.39, 1.64, 7.78, repro,
2007-05-30,2.82, -1.12, -5.03, 2.32, 1.61, 7.70, repro,
2007-05-31,2.61, -1.00, -4.27, 2.34, 1.61, 7.71, repro,
2007-06-01,3.04, -0.94, -10.82, 2.35, 1.62, 7.72, repro,
2007-06-02,3.97, -0.51, -4.66, 2.35, 1.61, 7.73, repro,
2007-06-03,4.18, -1.39, -7.30, 2.41, 1.66, 7.92, repro,
2007-06-04,2.53, -0.41, -0.72, 2.41, 1.66, 7.88, repro,
2007-06-05,3.05, -0.40, -7.24, 2.37, 1.67, 7.93, repro,
2007-06-06,2.93, -0.94, -5.91, 2.36, 1.62, 7.83, repro,
2007-06-07,4.85, -1.75, 0.08, 2.37, 1.62, 7.85, repro,
2007-06-08,4.43, -1.11, -2.92, 2.50, 1.72, 8.21, repro,
2007-06-09,3.04, -1.75, -7.50, 2.34, 1.61, 7.74, repro,
2007-06-10,3.54, -2.63, 3.39, 2.33, 1.61, 7.68, repro,
2007-06-11,3.19, -1.89, -5.77, 3.27, 2.03, 9.23, repro,
2007-06-12,3.14, -1.14, -6.43, 2.40, 1.65, 7.85, repro,
2007-06-13,3.29, -1.06, -4.94, 2.35, 1.62, 7.81, repro,
2007-06-14,5.09, -2.14, -8.06, 2.38, 1.62, 7.83, repro,
2007-06-15,3.68, -3.21, -1.93, 2.38, 1.66, 7.87, repro,
2007-06-16,3.59, -2.22, -8.63, 2.37, 1.63, 7.84, repro,
2007-06-17,3.32, -0.84, -11.27, 2.34, 1.61, 7.67, repro,
2007-06-18,4.58, -1.99, -4.10, 2.36, 1.62, 7.83, repro,
2007-06-19,5.56, -1.67, -1.88, 2.35, 1.62, 7.79, repro,
2007-06-20,4.93, -0.53, -3.62, 2.38, 1.62, 7.88, repro,
2007-06-21,7.06, -2.29, 0.45, 2.35, 1.64, 7.80, repro,
2007-06-22,3.28, -1.59, 3.86, 3.08, 1.90, 8.83, repro,
2007-06-23,4.55, -2.62, -2.52, 2.32, 1.61, 7.67, repro,
2007-06-24,4.10, -3.12, 1.48, 2.42, 1.66, 7.94, repro,
2007-06-25,3.79, -1.15, -2.24, 2.36, 1.63, 7.83, repro,
2007-06-26,5.20, -2.46, -5.15, 2.33, 1.62, 7.71, repro,
2007-06-27,3.63, -3.04, -12.23, 2.65, 1.79, 8.30, repro,
2007-06-28,4.55, -2.29, -7.23, 2.34, 1.62, 7.71, repro,
2007-06-29,3.30, -2.09, -3.52, 2.33, 1.62, 7.68, repro,
2007-06-30,3.25, -2.74, -11.20, 2.45, 1.66, 7.98, repro,
2007-07-01,4.48, -2.50, -4.11, 2.36, 1.61, 7.77, repro,
2007-07-02,5.45, -3.21, -2.13, 2.33, 1.61, 7.71, repro,
2007-07-03,5.75, -3.03, -8.63, 2.37, 1.63, 7.79, repro,
2007-07-04,3.15, -2.73, -3.45, 2.41, 1.65, 7.83, repro,
2007-07-05,4.88, -3.18, -2.85, 2.33, 1.61, 7.70, repro,
2007-07-06,6.36, -3.18, -7.57, 2.45, 1.68, 7.93, repro,
2007-07-07,6.09, -3.08, -0.34, 2.33, 1.61, 7.71, repro,
2007-07-08,3.83, -1.61, -5.57, 2.35, 1.62, 7.81, repro,
2007-07-09,6.11, -2.53, -10.36, 2.33, 1.61, 7.72, repro,
2007-07-10,4.11, -2.38, -1.63, 2.32, 1.61, 7.69, repro,
2007-07-11,6.84, -3.06, -2.53, 2.42, 1.67, 7.94, repro,
2007-07-12,6.73, -2.24, 1.81, 2.33, 1.59, 7.67, repro,
2007-07-13,6.84, -3.07, -0.20, 2.43, 1.68, 8.01, repro,
2007-07-14,2.47, -2.51, 1.61, 2.45, 1.67, 7.97, repro,
2007-07-15,4.41, -3.07, -4.63, 2.34, 1.60, 7.69, repro,
2007-07-16,5.24, -3.05, -3.62, 2.37, 1.63, 7.85, repro,
2007-07-17,5.13, -3.28, -3.70, 2.35, 1.60, 7.74, repro,
2007-07-18,4.69, -3.65, 2.06, 2.35, 1.61, 7.70, repro,
2007-07-19,4.34, -2.54, 4.47, 2.38, 1.62, 7.77, repro,
2007-07-20,2.56, -3.13, -1.24, 2.49, 1.69, 8.15, repro,
2007-07-21,5.59, -2.86, 8.69, 2.34, 1.60, 7.68, repro,
2007-07-22,7.40, -4.40, 10.87, 2.32, 1.60, 7.68, repro,
2007-07-23,5.95, -2.26, 10.84, 2.33, 1.63, 7.87, repro,
2007-07-24,4.64, -2.90, 2.79, 3.06, 1.93, 8.90, repro,
2007-07-25,2.89, -2.64, -1.29, 2.38, 1.62, 7.80, repro,
2007-07-26,3.54, -2.84, 1.52, 2.34, 1.60, 7.73, repro,
2007-07-27,4.59, -3.60, 6.48, 2.40, 1.63, 7.85, repro,
2007-07-28,5.33, -3.69, 6.13, 2.32, 1.59, 7.67, repro,
2007-07-29,5.78, -2.03, 5.19, 2.35, 1.61, 7.68, repro,
2007-07-30,3.71, -3.46, 4.18, 2.41, 1.68, 7.98, repro,
2007-07-31,5.19, -3.12, -1.70, 2.34, 1.61, 7.71, repro,
2007-08-01,3.12, -1.59, 0.05, 3.10, 2.04, 9.29, repro,
2007-08-02,5.89, -2.40, 2.29, 2.33, 1.60, 7.61, repro,
2007-08-03,5.35, -3.02, 5.59, 2.33, 1.60, 7.64, repro,
2007-08-04,4.30, -3.55, 1.73, 2.37, 1.65, 7.89, repro,
2007-08-05,3.82, -2.80, 8.22, 2.35, 1.62, 7.84, repro,
2007-08-06,5.03, -3.48, 15.62, 2.41, 1.65, 7.95, repro,
2007-08-07,6.33, -5.06, 5.65, 2.41, 1.65, 7.83, repro,
2007-08-08,7.06, -3.68, 7.08, 2.31, 1.59, 7.57, repro,
2007-08-09,3.94, -3.13, -4.90, 2.47, 1.66, 7.94, repro,
2007-08-10,5.14, -3.22, -3.26, 2.48, 1.70, 7.90, repro,
2007-08-11,4.75, -3.63, 3.49, 2.39, 1.64, 7.81, repro,
2007-08-12,5.61, -4.55, -4.17, 2.37, 1.62, 7.86, repro,
2007-08-13,5.75, -4.05, 5.04, 2.40, 1.66, 7.83, repro,
2007-08-14,6.64, -4.13, 5.97, 2.50, 1.71, 8.20, repro,
2007-08-15,4.29, -3.03, 5.51, 2.58, 1.76, 8.47, repro,
2007-08-16,4.74, -2.97, 6.23, 2.45, 1.67, 8.16, repro,
2007-08-17,3.77, -3.50, 4.79, 2.45, 1.68, 8.23, repro,
2007-08-18,5.38, -3.42, 13.72, 2.50, 1.73, 8.19, repro,
2007-08-19,4.92, -4.07, 21.28, 2.99, 1.91, 8.90, repro,
2007-08-20,4.20, -3.43, 7.92, 2.43, 1.66, 7.96, repro,
2007-08-21,5.01, -5.04, 9.84, 2.44, 1.68, 8.07, repro,
2007-08-22,4.62, -4.40, 11.37, 2.50, 1.71, 8.06, repro,
2007-08-23,4.45, -4.85, 2.88, 2.39, 1.64, 7.94, repro,
2007-08-24,3.05, -3.89, 18.12, 2.46, 1.72, 8.41, repro,
2007-08-25,5.17, -4.39, 17.49, 2.48, 1.72, 8.22, repro,
2007-08-26,4.03, -3.53, 12.89, 2.54, 1.77, 8.33, repro,
2007-08-27,4.05, -4.17, 4.19, 2.56, 1.81, 8.41, repro,
2007-08-28,5.31, -4.57, 10.98, 2.50, 1.75, 8.52, repro,
2007-08-29,6.05, -5.70, 13.42, 2.44, 1.70, 8.14, repro,
2007-08-30,4.53, -3.38, 9.14, 2.52, 1.81, 8.82, repro,
2007-08-31,3.77, -2.96, 9.39, 2.47, 1.73, 8.14, repro,
2007-09-01,3.77, -2.88, 9.50, 2.50, 1.76, 8.23, repro,
2007-09-02,3.84, -3.14, 10.14, 2.42, 1.70, 8.07, repro,
2007-09-03,2.51, -3.35, 7.34, 2.54, 1.80, 8.28, repro,
2007-09-04,4.51, -3.98, 6.37, 2.50, 1.75, 8.30, repro,
2007-09-05,4.42, -3.72, 10.56, 2.47, 1.73, 8.32, repro,
2007-09-06,4.51, -2.95, 10.37, 2.48, 1.75, 8.22, repro,
2007-09-07,3.13, -3.79, 7.83, 2.43, 1.68, 8.09, repro,
2007-09-08,3.41, -4.73, 5.02, 2.51, 1.75, 8.28, repro,
2007-09-09,2.86, -5.21, 4.08, 2.56, 1.78, 8.44, repro,
2007-09-10,3.04, -5.22, 1.05, 2.45, 1.71, 8.19, repro,
2007-09-11,3.69, -2.96, -0.52, 2.45, 1.71, 8.17, repro,
2007-09-12,0.81, -2.84, 9.27, 2.43, 1.68, 8.11, repro,
2007-09-13,2.07, -3.92, 8.03, 2.44, 1.70, 8.15, repro,
2007-09-14,0.52, -3.35, 4.92, 2.42, 1.68, 8.13, repro,
2007-09-15,2.57, -4.09, 15.02, 2.55, 1.78, 8.41, repro,
2007-09-16,3.12, -4.88, 12.45, 2.63, 1.80, 8.43, repro,
2007-09-17,2.65, -2.55, 6.17, 2.42, 1.67, 8.04, repro,
2007-09-18,3.17, -3.22, 3.70, 2.49, 1.71, 8.19, repro,
2007-09-19,1.13, -4.61, 7.42, 2.36, 1.63, 7.89, repro,
2007-09-20,1.52, -4.03, 10.26, 2.36, 1.62, 7.82, repro,
2007-09-21,3.53, -4.42, 17.86, 2.37, 1.61, 7.75, repro,
2007-09-22,3.35, -4.11, 9.07, 2.35, 1.61, 7.69, repro,
2007-09-23,1.61, -4.43, 14.08, 2.35, 1.59, 7.67, repro,
2007-09-24,2.27, -5.14, 14.46, 2.38, 1.62, 7.90, repro,
2007-09-25,3.09, -3.83, 10.74, 2.38, 1.62, 7.93, repro,
2007-09-26,3.39, -5.15, 8.48, 2.38, 1.61, 7.76, repro,
2007-09-27,3.31, -4.77, 10.49, 2.44, 1.65, 7.95, repro,
2007-09-28,3.56, -3.75, 7.95, 2.37, 1.61, 7.74, repro,
2007-09-29,0.32, -4.06, 17.63, 2.38, 1.61, 7.78, repro,
2007-09-30,0.03, -4.81, 11.65, 2.34, 1.59, 7.62, repro,
2007-10-01,1.84, -5.20, 21.13, 2.40, 1.63, 7.85, repro,
2007-10-02,3.44, -5.33, 14.58, 2.59, 1.74, 8.23, repro,
2007-10-03,2.85, -4.38, 10.48, 2.44, 1.64, 7.92, repro,
2007-10-04,5.23, -3.74, 12.45, 2.41, 1.62, 7.82, repro,
2007-10-05,2.58, -3.84, 12.99, 2.32, 1.58, 7.62, repro,
2007-10-06,1.96, -4.08, 15.35, 2.35, 1.58, 7.67, repro,
2007-10-07,5.38, -6.16, 12.96, 2.37, 1.60, 7.76, repro,
2007-10-08,3.49, -6.24, 8.87, 3.20, 1.97, 9.23, repro,
2007-10-09,5.87, -6.80, 6.58, 2.70, 1.88, 8.74, repro,
2007-10-10,3.86, -4.56, 11.06, 2.42, 1.66, 7.95, repro,
2007-10-11,3.30, -4.57, 12.42, 2.30, 1.58, 7.52, repro,
2007-10-12,2.88, -4.46, 18.44, 2.41, 1.63, 7.83, repro,
2007-10-13,4.25, -4.64, 13.68, 2.36, 1.60, 7.74, repro,
2007-10-14,3.42, -4.56, 15.01, 2.42, 1.65, 8.06, repro,
2007-10-15,3.89, -4.90, 14.75, 2.34, 1.61, 7.71, repro,
2007-10-16,3.29, -4.10, 10.31, 2.33, 1.59, 7.63, repro,
2007-10-17,2.81, -4.68, 11.74, 2.46, 1.66, 7.94, repro,
2007-10-18,4.00, -5.51, 19.49, 2.42, 1.63, 7.82, repro,
2007-10-19,4.50, -5.71, 22.17, 2.45, 1.65, 7.96, repro,
2007-10-20,5.78, -6.03, 20.16, 2.40, 1.65, 7.79, repro,
2007-10-21,4.18, -4.23, 15.80, 2.31, 1.58, 7.56, repro,
2007-10-22,4.52, -4.42, 15.31, 2.37, 1.61, 7.73, repro,
2007-10-23,5.87, -5.94, 12.17, 2.48, 1.68, 7.97, repro,
2007-10-24,6.64, -6.06, 11.26, 2.42, 1.64, 7.85, repro,
2007-10-25,3.79, -3.89, 13.31, 2.62, 1.74, 8.30, repro,
2007-10-26,3.72, -4.74, 15.01, 2.42, 1.65, 7.96, repro,
2007-10-27,5.14, -5.34, 16.11, 2.82, 1.81, 8.50, repro,
2007-10-28,4.68, -4.21, 12.80, 2.37, 1.62, 7.75, repro,
2007-10-29,4.56, -5.80, 23.10, 2.82, 1.77, 8.54, repro,
2007-10-30,3.44, -5.45, 17.16, 2.42, 1.62, 7.81, repro,
2007-10-31,5.51, -4.65, 21.25, 2.92, 1.90, 8.68, repro,
2007-11-01,3.60, -4.59, 18.05, 2.33, 1.57, 7.59, repro,
2007-11-02,4.19, -5.63, 15.66, 2.34, 1.58, 7.69, repro,
2007-11-03,4.75, -5.69, 15.15, 2.35, 1.58, 7.65, repro,
2007-11-04,5.54, -5.75, 10.06, 2.35, 1.59, 7.70, repro,
2007-11-05,4.50, -5.10, 8.65, 2.31, 1.57, 7.55, repro,
2007-11-06,4.45, -4.89, 9.23, 2.41, 1.60, 7.74, repro,
2007-11-07,1.96, -4.95, 11.75, 2.34, 1.57, 7.61, repro,
2007-11-08,5.23, -4.68, 15.10, 2.67, 1.87, 8.88, repro,
2007-11-09,4.42, -4.46, 20.20, 2.42, 1.63, 7.80, repro,
2007-11-10,2.63, -4.78, 23.35, 2.34, 1.58, 7.58, repro,
2007-11-11,2.22, -4.09, 16.49, 2.33, 1.57, 7.58, repro,
2007-11-12,2.78, -4.88, 18.12, 2.38, 1.62, 7.82, repro,
2007-11-13,1.48, -4.50, 18.97, 2.34, 1.58, 7.65, repro,
2007-11-14,3.07, -2.91, 7.03, 2.35, 1.60, 7.75, repro,
2007-11-15,1.37, -4.84, 14.70, 2.35, 1.59, 7.71, repro,
2007-11-16,1.13, -3.94, 18.27, 2.37, 1.60, 7.68, repro,
2007-11-17,0.74, -2.51, 15.05, 2.36, 1.58, 7.70, repro,
2007-11-18,1.55, -3.11, 11.37, 2.35, 1.57, 7.62, repro,
2007-11-19,1.95, -4.10, 3.47, 2.51, 1.66, 7.94, repro,
2007-11-20,-0.14, -2.36, -1.78, 2.99, 1.94, 9.13, repro,
2007-11-21,1.80, -2.97, 4.78, 2.36, 1.60, 7.69, repro,
2007-11-22,-0.57, -3.32, 4.13, 2.36, 1.59, 7.71, repro,
2007-11-23,1.51, -2.47, 16.32, 2.42, 1.61, 7.93, repro,